Home > Weather > Luanda > Past weeks

Flag for Angola Past Weather in Luanda, Angola — Yesterday and Last 2 Weeks

Now
81 °F

Sunny.


Feels Like: 85 °F
Forecast: 72 / 83 °F
Wind: 7 mph from Northwest

Location: Luanda Airport

Current Time: May 26, 2016 at 1:41:34 PM

Latest Report: May 26, 2016 at 1:00 PM


Visibility: 10 mi

Pressure: 29.89 "Hg

Humidity: 74%

Dew Point: 72 °F

Location of LuandaLocation

Past Weather in Luanda — Graph

°F

Luanda Temperature Yesterday

Maximum temperature yesterday: 82 °F (at 11:00 AM)
Minimum temperature yesterday: 73 °F (at 2:00 AM)
Average temperature yesterday: 77 °F

High & Low Weather Summary for the Past Weeks

 TemperatureHumidityPressure
High88 °F (May 12, 11:00 AM)94% (May 14, 12:00 AM)30.07 "Hg (May 14, 12:00 AM)
Low70 °F (May 18, 6:00 AM)58% (May 15, 1:00 PM)29.77 "Hg (May 12, 3:00 PM)
Average78 °F79%29.92 "Hg
* Reported May 11 12:00 PM — May 26 12:00 PM, Luanda, Weather by CustomWeather, © 2016

Note: Actual official high and low records may vary slightly from our data, if they occured in-between our weather recording intervals... More about our weather records

Advertising

Luanda Weather History for the Previous 24 Hours

Scroll right to see more
 ConditionsComfort  
Time TempWeatherWind HumidityBarometerVisibility
12:00 PM
Thu, May 26
82 °FPartly sunny.6 mph70%29.95 "HgN/A
11:00 AM81 °FPartly sunny.5 mph70%29.98 "HgN/A
10:00 AM82 °FPartly sunny.3 mph66%29.83 "HgN/A
9:00 AM79 °FScattered clouds.5 mph74%29.98 "HgN/A
8:00 AM77 °FScattered clouds.7 mph79%29.98 "HgN/A
7:00 AM75 °FPartly sunny.5 mph83%29.95 "HgN/A
6:00 AM75 °FPartly cloudy.7 mph83%29.92 "HgN/A
5:00 AM75 °FPassing clouds.5 mph83%29.92 "HgN/A
4:00 AM75 °FPassing clouds.5 mph83%29.92 "HgN/A
2:00 AM77 °FPassing clouds.3 mph83%29.92 "HgN/A
1:00 AM75 °FPassing clouds.No wind89%29.95 "HgN/A
12:00 AM77 °FPassing clouds.2 mph83%29.95 "HgN/A
11:00 PM
Wed, May 25
77 °FPassing clouds.2 mph83%29.98 "HgN/A
10:00 PM75 °FPassing clouds.1 mph89%29.95 "HgN/A
9:00 PM75 °FPassing clouds.3 mph89%29.95 "HgN/A
8:00 PM75 °FPassing clouds.5 mph89%29.92 "HgN/A
7:00 PM75 °FPassing clouds.7 mph89%29.89 "HgN/A
6:00 PM77 °FPassing clouds.8 mph83%29.89 "HgN/A
5:00 PM79 °FScattered clouds.9 mph79%29.86 "HgN/A
4:00 PM81 °FScattered clouds.9 mph70%29.86 "HgN/A
3:00 PM81 °FSunny.9 mph70%29.89 "Hg10 mi
2:00 PM82 °FSunny.9 mph66%29.89 "Hg10 mi
1:00 PM82 °FPassing clouds.9 mph66%29.92 "HgN/A
Weather by CustomWeather, © 2016

See weather overviewHow to use our weather pages